Ft Lauderdale, FL

4:12 PM EST on December 06, 2019 (GMT -0500)
Fort Lauderdale-Hollywood International

Weather History for KFLL - August, 2019

Change the Weather History Date:

Sunday, August 18, 2019

  Actual Average Record
Temperature  
Mean Temperature 85 °F 85 °F  
Max Temperature 91 °F 90 °F 98 °F (1921)
Min Temperature 78 °F 79 °F 68 °F (1921)
Degree Days  
Heating Degree Days 0 0  
Month to date heating degree days 0 0  
Since 1 June heating degree days 0 0  
Since 1 July heating degree days 0 0  
Cooling Degree Days 20 20  
Month to date cooling degree days 339 360  
Year to date cooling degree days 3145 2919  
Since 1 June cooling degree days 1530 1501  
Growing Degree Days 34 (Base 50)    
Moisture  
Dew Point 75 °F    
Average Humidity 77    
Maximum Humidity 91    
Minimum Humidity 63    
Precipitation  
Precipitation 0.00 in 0.24 in 6.75 in (1933)
Month to date precipitation 7.21 4.11  
Year to date precipitation 35.87 37.74  
Snow  
Snow 0.00 in - - ()
Month to date snowfall 0.0  
Since 1 June snowfall 0.0  
Since 1 July snowfall 0.0  
Snow Depth 0.00 in    
Sea Level Pressure  
Sea Level Pressure 30.07 in    
Wind  
Wind Speed 8 mph (East)    
Max Wind Speed 16 mph    
Max Gust Speed 21 mph    
Visibility 10 miles    
Events      
T = Trace of Precipitation, MM = Missing Value Source: NWS Daily Summary

Daily Weather History Graph

Daily Weather History Graph

Search for Another Location

Airport or City:

Astronomy

Aug. 18, 2019 Rise Set
Actual Time 6:54 AM EDT 7:54 PM EDT
Civil Twilight 6:30 AM EDT 8:18 PM EDT
Nautical Twilight 6:02 AM EDT 8:46 PM EDT
Astronomical Twilight 5:33 AM EDT 9:15 PM EDT
Moon 10:03 PM EDT (8/18) 9:25 AM EDT (8/18)
Length of Visible Light 13h 47m
Length of Day
12h 59m
Waning Gibbous, 91% of the Moon is Illuminated
Aug 18
Waning Gibbous
Aug 23
Last Quarter
Aug 30
New
Sep 5
First Quarter
Sep 14
Full

Hourly Weather History & Observations

Time (EDT) Temp. Heat Index Dew Point Humidity Pressure Visibility Wind Dir Wind Speed Gust Speed Precip Events Conditions
12:53 AM 81.0 °F 87.3 °F 75.9 °F 85% 30.10 in 10.0 mi Calm Calm - N/A   Partly Cloudy
1:53 AM 80.1 °F 85.4 °F 75.9 °F 87% 30.08 in 10.0 mi Calm Calm - N/A   Partly Cloudy
2:53 AM 80.1 °F 85.4 °F 75.9 °F 87% 30.07 in 10.0 mi NW 3.5 mph - N/A   Partly Cloudy
3:53 AM 80.1 °F 85.4 °F 75.9 °F 87% 30.05 in 10.0 mi Calm Calm - N/A   Partly Cloudy
4:53 AM 80.1 °F 85.4 °F 75.9 °F 87% 30.05 in 10.0 mi Calm Calm - N/A   Partly Cloudy
5:53 AM 79.0 °F - 75.0 °F 88% 30.06 in 10.0 mi Calm Calm - N/A   Scattered Clouds
6:53 AM 79.0 °F - 75.0 °F 88% 30.06 in 10.0 mi Calm Calm - N/A   Mostly Cloudy
7:53 AM 81.0 °F 87.3 °F 75.9 °F 85% 30.07 in 10.0 mi Calm Calm - N/A   Mostly Cloudy
8:53 AM 86.0 °F 96.0 °F 75.9 °F 72% 30.07 in 10.0 mi SE 9.2 mph - N/A   Scattered Clouds
9:53 AM 87.1 °F 98.8 °F 77.0 °F 72% 30.08 in 10.0 mi ESE 9.2 mph - N/A   Scattered Clouds
10:53 AM 88.0 °F 95.6 °F 73.0 °F 61% 30.09 in 10.0 mi SE 6.9 mph - N/A   Scattered Clouds
11:53 AM 89.1 °F 99.1 °F 75.0 °F 63% 30.10 in 10.0 mi ESE 9.2 mph - N/A   Scattered Clouds
12:53 PM 90.0 °F 100.2 °F 75.0 °F 61% 30.10 in 10.0 mi SE 8.1 mph - N/A   Partly Cloudy
1:53 PM 90.0 °F 101.3 °F 75.9 °F 63% 30.08 in 10.0 mi East 8.1 mph 18.4 mph N/A   Scattered Clouds
2:53 PM 90.0 °F 101.3 °F 75.9 °F 63% 30.07 in 10.0 mi SE 12.7 mph - N/A   Mostly Cloudy
3:53 PM 90.0 °F 104.5 °F 78.1 °F 68% 30.06 in 10.0 mi East 9.2 mph - N/A   Mostly Cloudy
4:53 PM 89.1 °F 100.2 °F 75.9 °F 65% 30.05 in 10.0 mi East 15.0 mph - N/A   Scattered Clouds
5:53 PM 88.0 °F 97.5 °F 75.0 °F 65% 30.04 in 10.0 mi East 13.8 mph - N/A   Scattered Clouds
6:53 PM 87.1 °F 94.5 °F 73.0 °F 63% 30.04 in 10.0 mi East 11.5 mph - N/A   Scattered Clouds
7:53 PM 84.9 °F 93.3 °F 75.0 °F 72% 30.05 in 10.0 mi East 10.4 mph - N/A   Scattered Clouds
8:53 PM 84.9 °F 93.3 °F 75.0 °F 72% 30.05 in 10.0 mi East 10.4 mph - N/A   Partly Cloudy
9:53 PM 84.9 °F 93.3 °F 75.0 °F 72% 30.06 in 10.0 mi East 10.4 mph - N/A   Partly Cloudy
10:53 PM 84.9 °F 92.1 °F 73.9 °F 69% 30.07 in 10.0 mi East 11.5 mph - N/A   Partly Cloudy
11:53 PM 84.0 °F 90.2 °F 73.0 °F 69% 30.07 in 10.0 mi East 11.5 mph - N/A   Partly Cloudy